sat.trackr.live / text

‹ back to catalog

SHIJIAN-16 (SJ-16)

NORAD 39358 · 2013-057A

PAYLOAD ACTIVE UNKNOWN

§ Identity

Operator
Country
PRC
Launch date
2013-10-25
Launch site
JSC
Launch vehicle
Mass (kg)
RCS (m²)
8.27

External: N2YO · Heavens-Above · Gunter

§ Orbital elements

Epoch: 2026-09-20T05:03:39.375360Z

Period
96.46 min
Inclination
74.9732°
Eccentricity
0.0015776
Mean motion
14.92789509 rev/d
Perigee alt
578.3 km
Apogee alt
600.2 km
Semi-major
6,967.4 km
B*
1.2638e-4
RAAN
176.6853°
Arg perigee
355.4219°
Mean anomaly
4.6822°
Rev number
70,052

§ Raw data

SHIJIAN-16 (SJ-16)1 39358U 13057A   26263.21087240  .00001280  00000+0  12638-3 0  99902 39358  74.9732 176.6853 0015776 355.4219   4.6822 14.92789509700523

JSON: /api/v1/satellites/39358 · /tle

For live sub-satellite position, see the globe view (requires WebGL).

§ Visibility from observer

Set your observer location to see the next 7 days of passes ≥ 10°. The values pass through the URL so the page stays shareable.

No JS? Fill the form by hand. The geolocation button needs JavaScript.